When you browse on this site, cookies collect data to enhance your experience and personalize the content and advertising you see.
Visit our Privacy Policy to learn more. By continuing to use the site, you agree to this use of cookies and data.
EN

Hourly Weather Novoselcy

Today, 28 September, Monday

Time Temperature Precipitation Wind Pressure Humidity
00:00 +10°C° 0 mm 5 mps 761 mmHg 36%
01:00 +10°C° 0 mm 5 mps 761 mmHg 37%
02:00 +9°C° 0 mm 5 mps 761 mmHg 38%
03:00 +9°C° 0 mm 5 mps 761 mmHg 38%
04:00 +9°C° 0 mm 5 mps 761 mmHg 39%
05:00 +8°C° 0 mm 5 mps 761 mmHg 40%
06:00 +8°C° 0 mm 5 mps 761 mmHg 41%
07:00 +9°C° 0 mm 6 mps 761 mmHg 39%
08:00 +11°C° 0 mm 6 mps 761 mmHg 36%
09:00 +12°C° 0 mm 7 mps 761 mmHg 34%
10:00 +14°C° 0 mm 7 mps 761 mmHg 31%
11:00 +16°C° 0 mm 7 mps 761 mmHg 29%
12:00 +17°C° 0 mm 7 mps 761 mmHg 27%
13:00 +17°C° 0 mm 7 mps 761 mmHg 26%
14:00 +19°C° 0 mm 6 mps 761 mmHg 26%
15:00 +19°C° 0 mm 6 mps 761 mmHg 25%
16:00 +17°C° 0 mm 5 mps 761 mmHg 27%
17:00 +16°C° 0 mm 5 mps 761 mmHg 28%
18:00 +17°C° 0 mm 4 mps 761 mmHg 29%
19:00 +15°C° 0 mm 4 mps 761 mmHg 30%
20:00 +14°C° 0 mm 4 mps 761 mmHg 32%
21:00 +14°C° 0 mm 4 mps 761 mmHg 33%
22:00 +13°C° 0 mm 4 mps 761 mmHg 34%
23:00 +12°C° 0 mm 4 mps 761 mmHg 35%

Tomorrow, 29 September, Tuesday

Time Temperature Precipitation Wind Pressure Humidity
00:00 +12°C° 0 mm 3 mps 761 mmHg 37%
01:00 +11°C° 0 mm 4 mps 761 mmHg 38%
02:00 +11°C° 0 mm 4 mps 761 mmHg 38%
03:00 +10°C° 0 mm 4 mps 761 mmHg 39%
04:00 +10°C° 0 mm 4 mps 761 mmHg 41%
05:00 +9°C° 0 mm 3 mps 761 mmHg 42%
06:00 +9°C° 0 mm 3 mps 761 mmHg 43%
07:00 +10°C° 0 mm 4 mps 761 mmHg 41%
08:00 +12°C° 0 mm 5 mps 761 mmHg 39%
09:00 +13°C° 0 mm 5 mps 761 mmHg 37%
10:00 +15°C° 0 mm 6 mps 761 mmHg 33%
11:00 +16°C° 0 mm 6 mps 760 mmHg 30%
12:00 +18°C° 0 mm 7 mps 760 mmHg 26%
13:00 +18°C° 0 mm 7 mps 760 mmHg 26%
14:00 +20°C° 0 mm 6 mps 759 mmHg 25%
15:00 +20°C° 0 mm 6 mps 759 mmHg 24%
16:00 +19°C° 0 mm 5 mps 759 mmHg 28%
17:00 +17°C° 0 mm 5 mps 758 mmHg 31%
18:00 +15°C° 0 mm 4 mps 758 mmHg 34%
19:00 +15°C° 0 mm 4 mps 758 mmHg 36%
20:00 +14°C° 0 mm 4 mps 758 mmHg 38%
21:00 +13°C° 0 mm 5 mps 758 mmHg 40%
22:00 +13°C° 0 mm 5 mps 758 mmHg 42%
23:00 +13°C° 0 mm 5 mps 757 mmHg 45%

Day after tomorrow, 30 September, Wednesday

Time Temperature Precipitation Wind Pressure Humidity
00:00 +12°C° 0 mm 5 mps 757 mmHg 47%
01:00 +12°C° 0 mm 5 mps 757 mmHg 49%
02:00 +12°C° 0 mm 5 mps 757 mmHg 51%
03:00 +12°C° 0 mm 5 mps 757 mmHg 53%
04:00 +12°C° 0 mm 5 mps 757 mmHg 55%
05:00 +10°C° 0 mm 5 mps 757 mmHg 58%
06:00 +10°C° 0 mm 5 mps 757 mmHg 60%
07:00 +11°C° 0 mm 6 mps 757 mmHg 54%
08:00 +14°C° 0 mm 6 mps 757 mmHg 49%
09:00 +15°C° 0 mm 7 mps 757 mmHg 44%
10:00 +17°C° 0 mm 7 mps 756 mmHg 40%
11:00 +18°C° 0 mm 7 mps 756 mmHg 35%
12:00 +20°C° 0 mm 8 mps 756 mmHg 31%
13:00 +21°C° 0 mm 8 mps 756 mmHg 30%
14:00 +21°C° 0 mm 8 mps 756 mmHg 29%
15:00 +21°C° 0 mm 8 mps 755 mmHg 28%
16:00 +20°C° 0 mm 7 mps 755 mmHg 30%
17:00 +19°C° 0 mm 6 mps 755 mmHg 32%
18:00 +17°C° 0 mm 5 mps 755 mmHg 34%
19:00 +16°C° 0 mm 5 mps 755 mmHg 34%
20:00 +16°C° 0 mm 5 mps 755 mmHg 35%
21:00 +15°C° 0 mm 6 mps 756 mmHg 35%
22:00 +15°C° 0 mm 5 mps 756 mmHg 37%
23:00 +14°C° 0 mm 5 mps 756 mmHg 39%

1 October, Thursday

Time Temperature Precipitation Wind Pressure Humidity
00:00 +14°C° 0 mm 5 mps 756 mmHg 41%
01:00 +13°C° 0 mm 5 mps 756 mmHg 43%
02:00 +13°C° 0 mm 5 mps 756 mmHg 45%
03:00 +13°C° 0 mm 5 mps 756 mmHg 46%
04:00 +12°C° 0 mm 5 mps 756 mmHg 48%
05:00 +12°C° 0 mm 5 mps 756 mmHg 49%
06:00 +12°C° 0 mm 5 mps 756 mmHg 50%
07:00 +13°C° 0 mm 6 mps 756 mmHg 45%
08:00 +15°C° 0 mm 7 mps 756 mmHg 41%
09:00 +16°C° 0 mm 7 mps 756 mmHg 37%
10:00 +17°C° 0 mm 8 mps 756 mmHg 33%
11:00 +20°C° 0 mm 8 mps 756 mmHg 30%
12:00 +21°C° 0 mm 9 mps 756 mmHg 27%
13:00 +21°C° 0 mm 8 mps 756 mmHg 27%
14:00 +21°C° 0 mm 8 mps 756 mmHg 27%
15:00 +21°C° 0 mm 8 mps 755 mmHg 26%
16:00 +20°C° 0 mm 7 mps 755 mmHg 29%
17:00 +19°C° 0 mm 6 mps 755 mmHg 31%
18:00 +17°C° 0 mm 5 mps 755 mmHg 34%
19:00 +17°C° 0 mm 5 mps 755 mmHg 35%
20:00 +16°C° 0 mm 5 mps 756 mmHg 36%
21:00 +16°C° 0 mm 6 mps 756 mmHg 37%
22:00 +16°C° 0 mm 6 mps 756 mmHg 39%
23:00 +15°C° 0 mm 6 mps 756 mmHg 42%

2 October, Friday

Time Temperature Precipitation Wind Pressure Humidity
00:00 +15°C° 0 mm 6 mps 756 mmHg 45%
01:00 +15°C° 0 mm 6 mps 756 mmHg 49%
02:00 +14°C° 0 mm 6 mps 756 mmHg 53%
03:00 +14°C° 0 mm 5 mps 756 mmHg 58%
04:00 +13°C° 0 mm 5 mps 756 mmHg 60%
05:00 +13°C° 0 mm 5 mps 756 mmHg 63%
06:00 +12°C° 0 mm 5 mps 756 mmHg 65%
07:00 +13°C° 0 mm 6 mps 756 mmHg 61%
08:00 +15°C° 0 mm 6 mps 756 mmHg 56%
09:00 +16°C° 0 mm 7 mps 756 mmHg 51%
10:00 +17°C° 0 mm 7 mps 756 mmHg 47%
11:00 +18°C° 0 mm 7 mps 756 mmHg 43%
12:00 +20°C° 0 mm 7 mps 756 mmHg 39%
13:00 +20°C° 0 mm 7 mps 756 mmHg 38%
14:00 +20°C° 0 mm 7 mps 756 mmHg 37%
15:00 +20°C° 0 mm 7 mps 755 mmHg 36%
16:00 +19°C° 0 mm 6 mps 755 mmHg 38%
17:00 +17°C° 0 mm 5 mps 755 mmHg 41%
18:00 +16°C° 0 mm 5 mps 755 mmHg 43%
19:00 +16°C° 0 mm 5 mps 755 mmHg 43%
20:00 +15°C° 0 mm 5 mps 756 mmHg 43%
21:00 +14°C° 0 mm 5 mps 756 mmHg 43%
22:00 +14°C° 0 mm 5 mps 756 mmHg 42%
23:00 +14°C° 0 mm 5 mps 756 mmHg 41%

3 October, Saturday

Time Temperature Precipitation Wind Pressure Humidity
00:00 +14°C° 0 mm 5 mps 756 mmHg 40%
01:00 +13°C° 0 mm 5 mps 756 mmHg 42%
02:00 +13°C° 0 mm 5 mps 756 mmHg 43%
03:00 +12°C° 0 mm 5 mps 756 mmHg 45%
04:00 +12°C° 0 mm 5 mps 756 mmHg 46%
05:00 +12°C° 0 mm 4 mps 756 mmHg 48%
06:00 +11°C° 0 mm 4 mps 756 mmHg 49%
07:00 +12°C° 0 mm 5 mps 756 mmHg 47%
08:00 +14°C° 0 mm 5 mps 757 mmHg 44%
09:00 +15°C° 0 mm 5 mps 757 mmHg 42%
10:00 +16°C° 0 mm 6 mps 757 mmHg 39%
11:00 +19°C° 0 mm 6 mps 757 mmHg 36%
12:00 +21°C° 0 mm 6 mps 757 mmHg 33%
13:00 +21°C° 0 mm 6 mps 757 mmHg 32%
14:00 +22°C° 0 mm 6 mps 757 mmHg 32%
15:00 +22°C° 0 mm 6 mps 756 mmHg 31%
16:00 +20°C° 0 mm 5 mps 756 mmHg 34%
17:00 +19°C° 0 mm 5 mps 756 mmHg 37%
18:00 +17°C° 0 mm 4 mps 756 mmHg 40%
19:00 +15°C° 0 mm 4 mps 757 mmHg 39%
20:00 +15°C° 0 mm 4 mps 757 mmHg 37%
21:00 +14°C° 0 mm 4 mps 758 mmHg 36%
22:00 +13°C° 0 mm 4 mps 758 mmHg 40%
23:00 +13°C° 0 mm 4 mps 758 mmHg 43%
Show more